,,,PA_Meas_PMT16A,,PR_Meas_QMR101_102,,RH_Meas_QMH101,,SR_Meas_QMS101,,TA_Meas_QMH101,,GenWind,,GenWind,
date,time,status,PA,status,PR,status,RH,status,SR,status,TA,status,DirAvg,status,SpdAvg,
2009-10-09, 00:00:04,VALID,1009.03,VALID,0,VALID,90.7465,VALID,0,VALID,22.7978,VALID,57,VALID,0,
2009-10-09, 00:01:04,VALID,1009.04,VALID,0,VALID,90.7465,VALID,0,VALID,22.7978,VALID,55,VALID,0,
2009-10-09, 00:02:04,VALID,1009.03,VALID,0,VALID,90.7541,VALID,0,VALID,22.78,VALID,43,VALID,0,
2009-10-09, 00:03:04,VALID,1009.03,VALID,0,VALID,90.7693,VALID,0,VALID,22.7588,VALID,42,VALID,0,
2009-10-09, 00:04:04,VALID,1009.01,VALID,0,VALID,90.7617,VALID,0,VALID,22.7588,VALID,42,VALID,0,
2009-10-09, 00:05:04,VALID,1008.96,VALID,0,VALID,90.7693,VALID,0,VALID,22.7606,VALID,42,VALID,0,
2009-10-09, 00:06:04,VALID,1008.93,VALID,0,VALID,90.7693,VALID,0,VALID,22.7606,VALID,42,VALID,0,
2009-10-09, 00:07:04,VALID,1008.94,VALID,0,VALID,90.7388,VALID,0,VALID,22.78,VALID,42,VALID,0,
2009-10-09, 00:08:04,VALID,1008.89,VALID,0,VALID,90.7617,VALID,0,VALID,22.7606,VALID,42,VALID,0,
2009-10-09, 00:09:04,VALID,1008.88,VALID,0,VALID,90.777,VALID,0.105969,VALID,22.7571,VALID,42,VALID,0,
2009-10-09, 00:10:04,VALID,1008.86,VALID,0,VALID,90.7617,VALID,0,VALID,22.7376,VALID,42,VALID,0,
2009-10-09, 00:11:04,VALID,1008.84,VALID,0,VALID,90.7846,VALID,0,VALID,22.7588,VALID,42,VALID,0,
2009-10-09, 00:12:04,VALID,1008.83,VALID,0,VALID,90.7693,VALID,0,VALID,22.7588,VALID,42,VALID,0,
2009-10-09, 00:13:04,VALID,1008.81,VALID,0,VALID,90.7617,VALID,0.105969,VALID,22.7376,VALID,42,VALID,0,
2009-10-09, 00:14:04,VALID,1008.82,VALID,0,VALID,90.7693,VALID,0,VALID,22.7182,VALID,42,VALID,0,
2009-10-09, 00:15:04,VALID,1008.82,VALID,0,VALID,90.7998,VALID,0.105969,VALID,22.7394,VALID,42,VALID,0,
2009-10-09, 00:16:04,VALID,1008.81,VALID,0,VALID,90.7693,VALID,0,VALID,22.7394,VALID,42,VALID,0,
2009-10-09, 00:17:04,VALID,1008.82,VALID,0,VALID,90.777,VALID,0,VALID,22.7588,VALID,42,VALID,0,
2009-10-09, 00:18:04,VALID,1008.79,VALID,0,VALID,90.7617,VALID,0.105969,VALID,22.7588,VALID,42,VALID,0,
2009-10-09, 00:19:04,VALID,1008.78,VALID,0,VALID,90.7693,VALID,0,VALID,22.7588,VALID,42,VALID,0,
2009-10-09, 00:20:04,VALID,1008.74,VALID,0,VALID,90.7693,VALID,0,VALID,22.7376,VALID,42,VALID,0,
2009-10-09, 00:21:04,VALID,1008.72,VALID,0,VALID,90.777,VALID,0,VALID,22.7376,VALID,42,VALID,0,
2009-10-09, 00:22:04,VALID,1008.74,VALID,0,VALID,90.7617,VALID,0,VALID,22.7571,VALID,42,VALID,0,
2009-10-09, 00:23:04,VALID,1008.7,VALID,0,VALID,90.777,VALID,0,VALID,22.7376,VALID,42,VALID,0,
2009-10-09, 00:24:04,VALID,1008.71,VALID,0,VALID,90.777,VALID,0,VALID,22.7571,VALID,42,VALID,0,
2009-10-09, 00:25:04,VALID,1008.73,VALID,0,VALID,90.777,VALID,0,VALID,22.7571,VALID,42,VALID,0,
2009-10-09, 00:26:04,VALID,1008.73,VALID,0,VALID,90.8075,VALID,0,VALID,22.7978,VALID,42,VALID,0,
2009-10-09, 00:27:04,VALID,1008.69,VALID,0,VALID,90.8761,VALID,0,VALID,22.7978,VALID,42,VALID,0,
2009-10-09, 00:28:04,VALID,1008.67,VALID,0,VALID,90.8609,VALID,0,VALID,22.7766,VALID,42,VALID,0,
2009-10-09, 00:29:04,VALID,1008.67,VALID,0,VALID,90.8761,VALID,0.105969,VALID,22.7961,VALID,42,VALID,0,
2009-10-09, 00:30:04,VALID,1008.68,VALID,0,VALID,90.8914,VALID,0,VALID,22.7978,VALID,42,VALID,0,
2009-10-09, 00:31:04,VALID,1008.69,VALID,0,VALID,90.8761,VALID,0.105969,VALID,22.7766,VALID,42,VALID,0,
2009-10-09, 00:32:04,VALID,1008.72,VALID,0,VALID,90.8914,VALID,0,VALID,22.7978,VALID,42,VALID,0,
2009-10-09, 00:33:04,VALID,1008.7,VALID,0,VALID,90.8914,VALID,0.105969,VALID,22.7766,VALID,42,VALID,0,
2009-10-09, 00:34:04,VALID,1008.71,VALID,0,VALID,90.8914,VALID,0.105969,VALID,22.7571,VALID,42,VALID,0,
2009-10-09, 00:35:04,VALID,1008.66,VALID,0,VALID,90.8914,VALID,0,VALID,22.7766,VALID,42,VALID,0,
2009-10-09, 00:36:04,VALID,1008.68,VALID,0,VALID,90.8761,VALID,0,VALID,22.7978,VALID,42,VALID,0,
2009-10-09, 00:37:04,VALID,1008.68,VALID,0,VALID,90.8761,VALID,0.105969,VALID,22.7978,VALID,42,VALID,0,
2009-10-09, 00:38:04,VALID,1008.65,VALID,0,VALID,90.8837,VALID,0,VALID,22.8173,VALID,42,VALID,0,
2009-10-09, 00:39:04,VALID,1008.63,VALID,0,VALID,90.899,VALID,0,VALID,22.7961,VALID,42,VALID,0,
2009-10-09, 00:40:04,VALID,1008.65,VALID,0,VALID,90.8914,VALID,0,VALID,22.7961,VALID,42,VALID,0,
2009-10-09, 00:41:04,VALID,1008.63,VALID,0,VALID,90.8685,VALID,0,VALID,22.8173,VALID,42,VALID,0,
2009-10-09, 00:42:04,VALID,1008.62,VALID,0,VALID,90.8837,VALID,0,VALID,22.8368,VALID,42,VALID,0,
2009-10-09, 00:43:04,VALID,1008.65,VALID,0,VALID,90.8761,VALID,0.105969,VALID,22.8155,VALID,42,VALID,0,
2009-10-09, 00:44:04,VALID,1008.63,VALID,0,VALID,90.899,VALID,0,VALID,22.7961,VALID,42,VALID,0,
2009-10-09, 00:45:04,VALID,1008.63,VALID,0,VALID,90.9219,VALID,0,VALID,22.8173,VALID,42,VALID,0,
2009-10-09, 00:46:04,VALID,1008.64,VALID,0,VALID,90.9219,VALID,0,VALID,22.8173,VALID,42,VALID,0,
2009-10-09, 00:47:04,VALID,1008.64,VALID,0,VALID,90.899,VALID,0,VALID,22.7961,VALID,42,VALID,0,
2009-10-09, 00:48:04,VALID,1008.63,VALID,0,VALID,90.7998,VALID,0.105969,VALID,22.8155,VALID,42,VALID,0,
2009-10-09, 00:49:04,VALID,1008.6,VALID,0,VALID,90.7922,VALID,0,VALID,22.835,VALID,42,VALID,0,
2009-10-09, 00:50:04,VALID,1008.59,VALID,0,VALID,90.7846,VALID,0.105969,VALID,22.8562,VALID,42,VALID,0,
2009-10-09, 00:51:04,VALID,1008.61,VALID,0,VALID,90.7846,VALID,0.105969,VALID,22.8562,VALID,42,VALID,0,
2009-10-09, 00:52:04,VALID,1008.58,VALID,0,VALID,90.8151,VALID,0,VALID,22.8562,VALID,42,VALID,0,
2009-10-09, 00:53:04,VALID,1008.58,VALID,0,VALID,90.8151,VALID,0,VALID,22.835,VALID,42,VALID,0,
2009-10-09, 00:54:04,VALID,1008.58,VALID,0,VALID,90.8227,VALID,0,VALID,22.8545,VALID,42,VALID,0,
2009-10-09, 00:55:04,VALID,1008.63,VALID,0,VALID,90.8151,VALID,0,VALID,22.8545,VALID,42,VALID,0,
2009-10-09, 00:56:04,VALID,1008.63,VALID,0,VALID,90.838,VALID,0.105969,VALID,22.8545,VALID,42,VALID,0,
2009-10-09, 00:57:04,VALID,1008.69,VALID,0,VALID,90.8304,VALID,0.105969,VALID,22.8757,VALID,42,VALID,0,
2009-10-09, 00:58:04,VALID,1008.7,VALID,0,VALID,90.8304,VALID,0.105969,VALID,22.8952,VALID,42,VALID,0,
2009-10-09, 00:59:04,VALID,1008.74,VALID,0,VALID,90.7998,VALID,0,VALID,22.8935,VALID,42,VALID,0,
2009-10-09, 01:00:04,VALID,1008.74,VALID,0,VALID,90.8227,VALID,0,VALID,22.9147,VALID,42,VALID,0,
2009-10-09, 01:01:04,VALID,1008.75,VALID,0,VALID,90.8227,VALID,0,VALID,22.9147,VALID,42,VALID,0,
2009-10-09, 01:02:04,VALID,1008.74,VALID,0,VALID,90.8151,VALID,0.105969,VALID,22.9147,VALID,42,VALID,0,
2009-10-09, 01:03:04,VALID,1008.71,VALID,0,VALID,90.8227,VALID,0.105969,VALID,22.8935,VALID,42,VALID,0,
2009-10-09, 01:04:04,VALID,1008.72,VALID,0,VALID,90.8151,VALID,0,VALID,22.9147,VALID,42,VALID,0,
2009-10-09, 01:05:04,VALID,1008.73,VALID,0,VALID,90.8151,VALID,0.105969,VALID,22.8935,VALID,42,VALID,0,
2009-10-09, 01:06:04,VALID,1008.71,VALID,0,VALID,90.8304,VALID,0,VALID,22.9342,VALID,42,VALID,0,
2009-10-09, 01:07:04,VALID,1008.7,VALID,0,VALID,90.8456,VALID,0,VALID,22.9129,VALID,42,VALID,0,
2009-10-09, 01:08:04,VALID,1008.71,VALID,0,VALID,90.838,VALID,0,VALID,22.9147,VALID,42,VALID,0,
2009-10-09, 01:09:04,VALID,1008.72,VALID,0,VALID,90.838,VALID,0,VALID,22.9342,VALID,42,VALID,0,
2009-10-09, 01:10:04,VALID,1008.72,VALID,0,VALID,90.8304,VALID,0,VALID,22.9342,VALID,42,VALID,0,
2009-10-09, 01:11:04,VALID,1008.73,VALID,0,VALID,90.8456,VALID,0.105969,VALID,22.9129,VALID,42,VALID,0,
2009-10-09, 01:12:04,VALID,1008.72,VALID,0,VALID,90.8456,VALID,0,VALID,22.9536,VALID,42,VALID,0,
2009-10-09, 01:13:05,VALID,1008.72,VALID,0,VALID,90.8456,VALID,0,VALID,22.9324,VALID,42,VALID,0,
2009-10-09, 01:14:05,VALID,1008.71,VALID,0,VALID,90.838,VALID,0.105969,VALID,22.9324,VALID,42,VALID,0,
2009-10-09, 01:15:05,VALID,1008.73,VALID,0,VALID,90.8456,VALID,0,VALID,22.9324,VALID,42,VALID,0,
2009-10-09, 01:16:05,VALID,1008.73,VALID,0,VALID,90.8609,VALID,0.105969,VALID,22.9324,VALID,42,VALID,0,
2009-10-09, 01:17:05,VALID,1008.71,VALID,0,VALID,90.9524,VALID,0,VALID,22.9536,VALID,42,VALID,0,
2009-10-09, 01:18:05,VALID,1008.75,VALID,0,VALID,90.96,VALID,0,VALID,22.9536,VALID,42,VALID,0,
2009-10-09, 01:19:05,VALID,1008.7,VALID,0,VALID,90.9752,VALID,0.105969,VALID,22.9536,VALID,42,VALID,0,
2009-10-09, 01:20:05,VALID,1008.73,VALID,0,VALID,90.9752,VALID,0,VALID,22.9536,VALID,42,VALID,0,
2009-10-09, 01:21:05,VALID,1008.75,VALID,0,VALID,90.9752,VALID,0,VALID,22.9324,VALID,42,VALID,0,
2009-10-09, 01:22:05,VALID,1008.8,VALID,0,VALID,90.9981,VALID,0,VALID,22.9129,VALID,42,VALID,0,
2009-10-09, 01:23:05,VALID,1008.79,VALID,0,VALID,90.9905,VALID,0,VALID,22.9342,VALID,42,VALID,0,
2009-10-09, 01:24:05,VALID,1008.81,VALID,0,VALID,90.9829,VALID,0,VALID,22.9342,VALID,42,VALID,0,
2009-10-09, 01:25:05,VALID,1008.79,VALID,0,VALID,90.9829,VALID,0.105969,VALID,22.9129,VALID,42,VALID,0,
2009-10-09, 01:26:05,VALID,1008.82,VALID,0,VALID,90.9524,VALID,0,VALID,22.9342,VALID,42,VALID,0,
2009-10-09, 01:27:05,VALID,1008.79,VALID,0,VALID,90.9447,VALID,0.105969,VALID,22.9324,VALID,42,VALID,0,
2009-10-09, 01:28:05,VALID,1008.79,VALID,0,VALID,90.9447,VALID,0,VALID,22.9536,VALID,42,VALID,0,
2009-10-09, 01:29:05,VALID,1008.77,VALID,0,VALID,90.9752,VALID,0.105969,VALID,22.9519,VALID,42,VALID,0,
2009-10-09, 01:30:05,VALID,1008.78,VALID,0,VALID,90.9905,VALID,0,VALID,22.9731,VALID,42,VALID,0,
2009-10-09, 01:31:05,VALID,1008.78,VALID,0,VALID,90.9752,VALID,0,VALID,22.9519,VALID,42,VALID,0,
2009-10-09, 01:32:05,VALID,1008.77,VALID,0,VALID,90.9752,VALID,0,VALID,22.9519,VALID,42,VALID,0,
2009-10-09, 01:33:05,VALID,1008.78,VALID,0,VALID,90.9829,VALID,0,VALID,22.9731,VALID,42,VALID,0,
2009-10-09, 01:34:05,VALID,1008.78,VALID,0,VALID,90.9752,VALID,0,VALID,22.9731,VALID,42,VALID,0,
2009-10-09, 01:35:05,VALID,1008.8,VALID,0,VALID,90.9829,VALID,0,VALID,22.9731,VALID,42,VALID,0,
2009-10-09, 01:36:05,VALID,1008.8,VALID,0,VALID,90.9752,VALID,0,VALID,22.9926,VALID,42,VALID,0,
2009-10-09, 01:37:05,VALID,1008.8,VALID,0,VALID,90.9371,VALID,0,VALID,22.9926,VALID,42,VALID,0,
2009-10-09, 01:38:05,VALID,1008.84,VALID,0,VALID,90.9752,VALID,0,VALID,22.9926,VALID,42,VALID,0,
2009-10-09, 01:39:05,VALID,1008.8,VALID,0,VALID,90.9295,VALID,0,VALID,22.9519,VALID,42,VALID,0,
2009-10-09, 01:40:05,VALID,1008.76,VALID,0,VALID,90.899,VALID,0,VALID,22.9731,VALID,42,VALID,0,
2009-10-09, 01:41:05,VALID,1008.75,VALID,0,VALID,90.8837,VALID,0.105969,VALID,22.9519,VALID,42,VALID,0,
2009-10-09, 01:42:05,VALID,1008.71,VALID,0,VALID,90.8837,VALID,0,VALID,22.9536,VALID,42,VALID,0,
2009-10-09, 01:43:05,VALID,1008.71,VALID,0,VALID,90.9142,VALID,0.105969,VALID,22.9324,VALID,42,VALID,0,
2009-10-09, 01:44:05,VALID,1008.67,VALID,0,VALID,90.9142,VALID,0,VALID,22.9324,VALID,42,VALID,0,
2009-10-09, 01:45:05,VALID,1008.66,VALID,0,VALID,90.8837,VALID,0,VALID,22.9731,VALID,42,VALID,0,
2009-10-09, 01:46:05,VALID,1008.66,VALID,0,VALID,90.899,VALID,0,VALID,22.9324,VALID,42,VALID,0,
2009-10-09, 01:47:05,VALID,1008.6,VALID,0,VALID,90.9142,VALID,0,VALID,22.9536,VALID,42,VALID,0,
2009-10-09, 01:48:05,VALID,1008.59,VALID,0,VALID,90.8914,VALID,0,VALID,22.9731,VALID,42,VALID,0,
2009-10-09, 01:49:05,VALID,1008.58,VALID,0,VALID,90.899,VALID,0.105969,VALID,22.9714,VALID,42,VALID,0,
2009-10-09, 01:50:05,VALID,1008.56,VALID,0,VALID,90.8837,VALID,0.105969,VALID,22.9909,VALID,42,VALID,0,
2009-10-09, 01:51:05,VALID,1008.55,VALID,0,VALID,90.9066,VALID,0.105969,VALID,22.9714,VALID,42,VALID,0,
2009-10-09, 01:52:05,VALID,1008.52,VALID,0,VALID,90.8837,VALID,0.105969,VALID,23.0103,VALID,42,VALID,0,
2009-10-09, 01:53:05,VALID,1008.51,VALID,0,VALID,90.8914,VALID,0,VALID,23.0298,VALID,42,VALID,0,
2009-10-09, 01:54:05,VALID,1008.5,VALID,0,VALID,90.899,VALID,0,VALID,23.0528,VALID,42,VALID,0,
2009-10-09, 01:55:05,VALID,1008.46,VALID,0,VALID,90.899,VALID,0,VALID,23.0511,VALID,42,VALID,0,
2009-10-09, 01:56:05,VALID,1008.43,VALID,0,VALID,90.8837,VALID,0,VALID,23.0918,VALID,42,VALID,0,
2009-10-09, 01:57:05,VALID,1008.43,VALID,0,VALID,90.899,VALID,0,VALID,23.0918,VALID,42,VALID,0,
2009-10-09, 01:58:05,VALID,1008.44,VALID,0,VALID,90.9219,VALID,0,VALID,23.0918,VALID,44,VALID,0,
2009-10-09, 01:59:05,VALID,1008.42,VALID,0,VALID,90.9295,VALID,0,VALID,23.09,VALID,45,VALID,0,
2009-10-09, 02:00:05,VALID,1008.45,VALID,0,VALID,90.9219,VALID,0,VALID,23.1095,VALID,45,VALID,0,
2009-10-09, 02:01:05,VALID,1008.42,VALID,0,VALID,90.9447,VALID,0,VALID,23.1307,VALID,45,VALID,0,
2009-10-09, 02:02:05,VALID,1008.41,VALID,0,VALID,90.9447,VALID,0,VALID,23.1112,VALID,45,VALID,0,
2009-10-09, 02:03:05,VALID,1008.42,VALID,0,VALID,90.9371,VALID,0,VALID,23.1112,VALID,45,VALID,0,
2009-10-09, 02:04:05,VALID,1008.42,VALID,0,VALID,90.96,VALID,0,VALID,23.1112,VALID,45,VALID,0,
2009-10-09, 02:05:05,VALID,1008.44,VALID,0,VALID,90.96,VALID,0,VALID,23.09,VALID,45,VALID,0,
2009-10-09, 02:06:05,VALID,1008.45,VALID,0,VALID,90.9752,VALID,0,VALID,23.1112,VALID,45,VALID,0,
2009-10-09, 02:07:05,VALID,1008.42,VALID,0,VALID,90.9829,VALID,0,VALID,23.0918,VALID,44,VALID,0,
2009-10-09, 02:08:05,VALID,1008.44,VALID,0,VALID,90.9676,VALID,0,VALID,23.0918,VALID,45,VALID,0,
2009-10-09, 02:09:05,VALID,1008.43,VALID,0,VALID,90.9676,VALID,0,VALID,23.09,VALID,45,VALID,0,
2009-10-09, 02:10:05,VALID,1008.43,VALID,0,VALID,90.9752,VALID,0.105969,VALID,23.0883,VALID,45,VALID,0,
2009-10-09, 02:11:05,VALID,1008.45,VALID,0,VALID,90.9752,VALID,0.105969,VALID,23.0705,VALID,45,VALID,0,
2009-10-09, 02:12:05,VALID,1008.42,VALID,0,VALID,91.0057,VALID,0.105969,VALID,23.0705,VALID,45,VALID,0,
2009-10-09, 02:13:05,VALID,1008.43,VALID,0,VALID,91.0439,VALID,0,VALID,23.0511,VALID,45,VALID,0,
2009-10-09, 02:14:05,VALID,1008.41,VALID,0,VALID,91.082,VALID,0.105969,VALID,23.0298,VALID,45,VALID,0,
2009-10-09, 02:15:05,VALID,1008.43,VALID,0,VALID,91.0896,VALID,0.105969,VALID,23.0511,VALID,45,VALID,0,
2009-10-09, 02:16:05,VALID,1008.38,VALID,0,VALID,91.0896,VALID,0,VALID,23.0511,VALID,45,VALID,0,
2009-10-09, 02:17:05,VALID,1008.41,VALID,0,VALID,91.0973,VALID,0,VALID,23.0316,VALID,45,VALID,0,
2009-10-09, 02:18:05,VALID,1008.39,VALID,0,VALID,91.1049,VALID,0.105969,VALID,23.0316,VALID,45,VALID,0,
2009-10-09, 02:19:05,VALID,1008.42,VALID,0,VALID,91.1125,VALID,0,VALID,23.0121,VALID,45,VALID,0,
2009-10-09, 02:20:05,VALID,1008.42,VALID,0,VALID,91.1049,VALID,0,VALID,23.0121,VALID,45,VALID,0,
2009-10-09, 02:21:05,VALID,1008.42,VALID,0,VALID,91.1049,VALID,0,VALID,22.9909,VALID,45,VALID,0,
2009-10-09, 02:22:05,VALID,1008.43,VALID,0,VALID,91.1125,VALID,0,VALID,23.0121,VALID,45,VALID,0,
2009-10-09, 02:23:05,VALID,1008.42,VALID,0,VALID,91.0973,VALID,0,VALID,22.9909,VALID,45,VALID,0,
2009-10-09, 02:24:05,VALID,1008.39,VALID,0,VALID,91.0973,VALID,0,VALID,22.9909,VALID,45,VALID,0,
2009-10-09, 02:25:05,VALID,1008.37,VALID,0,VALID,91.1125,VALID,0.105969,VALID,23.0121,VALID,45,VALID,0,
2009-10-09, 02:26:05,VALID,1008.4,VALID,0,VALID,91.1049,VALID,0.105969,VALID,23.0121,VALID,45,VALID,0,
2009-10-09, 02:27:05,VALID,1008.38,VALID,0,VALID,91.1125,VALID,0,VALID,23.0121,VALID,45,VALID,0,
2009-10-09, 02:28:05,VALID,1008.37,VALID,0,VALID,91.1201,VALID,0,VALID,23.0121,VALID,45,VALID,0,
2009-10-09, 02:29:05,VALID,1008.37,VALID,0,VALID,91.143,VALID,0.105969,VALID,23.0121,VALID,45,VALID,0,
2009-10-09, 02:30:05,VALID,1008.36,VALID,0,VALID,91.1125,VALID,0,VALID,23.0121,VALID,45,VALID,0,
2009-10-09, 02:31:05,VALID,1008.35,VALID,0,VALID,91.1201,VALID,0.105969,VALID,22.9909,VALID,45,VALID,0,
2009-10-09, 02:32:05,VALID,1008.35,VALID,0,VALID,91.143,VALID,0,VALID,23.0121,VALID,45,VALID,0,
2009-10-09, 02:33:05,VALID,1008.34,VALID,0,VALID,91.1354,VALID,0,VALID,23.0121,VALID,45,VALID,0,
2009-10-09, 02:34:05,VALID,1008.35,VALID,0,VALID,91.1125,VALID,0,VALID,23.0121,VALID,45,VALID,0,
2009-10-09, 02:35:05,VALID,1008.34,VALID,0,VALID,91.1201,VALID,0,VALID,23.0121,VALID,45,VALID,0,
2009-10-09, 02:36:05,VALID,1008.36,VALID,0,VALID,91.1049,VALID,0.105969,VALID,23.0316,VALID,45,VALID,0,
2009-10-09, 02:37:05,VALID,1008.36,VALID,0,VALID,91.1125,VALID,0,VALID,23.0316,VALID,45,VALID,0,
2009-10-09, 02:38:05,VALID,1008.38,VALID,0,VALID,91.1125,VALID,0,VALID,23.0705,VALID,45,VALID,0,
2009-10-09, 02:39:05,VALID,1008.4,VALID,0,VALID,91.1049,VALID,0,VALID,23.09,VALID,45,VALID,0,
2009-10-09, 02:40:05,VALID,1008.41,VALID,0,VALID,91.0896,VALID,0.105969,VALID,23.09,VALID,45,VALID,0,
2009-10-09, 02:41:05,VALID,1008.38,VALID,0,VALID,91.0439,VALID,0.105969,VALID,23.0883,VALID,145,VALID,0,
2009-10-09, 02:42:05,VALID,1008.39,VALID,0,VALID,91.0439,VALID,0,VALID,23.0688,VALID,145,VALID,0,
2009-10-09, 02:43:05,VALID,1008.37,VALID,0,VALID,91.021,VALID,0.105969,VALID,23.09,VALID,145,VALID,0,
2009-10-09, 02:44:05,VALID,1008.35,VALID,0,VALID,91.0439,VALID,0.105969,VALID,23.0883,VALID,145,VALID,0,
2009-10-09, 02:45:05,VALID,1008.36,VALID,0,VALID,91.0286,VALID,0,VALID,23.09,VALID,145,VALID,0,
2009-10-09, 02:46:05,VALID,1008.37,VALID,0,VALID,91.0515,VALID,0,VALID,23.0883,VALID,145,VALID,0,
2009-10-09, 02:47:05,VALID,1008.35,VALID,0,VALID,91.0362,VALID,0.105969,VALID,23.1095,VALID,145,VALID,0,
2009-10-09, 02:48:05,VALID,1008.33,VALID,0,VALID,91.0744,VALID,0.105969,VALID,23.1095,VALID,145,VALID,0,
2009-10-09, 02:49:05,VALID,1008.33,VALID,0,VALID,91.0667,VALID,0,VALID,23.09,VALID,145,VALID,0,
2009-10-09, 02:50:05,VALID,1008.36,VALID,0,VALID,91.0515,VALID,0.105969,VALID,23.0688,VALID,145,VALID,0,
2009-10-09, 02:51:05,VALID,1008.34,VALID,0,VALID,91.0515,VALID,0.105969,VALID,23.1077,VALID,145,VALID,0,
2009-10-09, 02:52:05,VALID,1008.33,VALID,0,VALID,91.0515,VALID,0,VALID,23.129,VALID,145,VALID,0,
2009-10-09, 02:53:05,VALID,1008.32,VALID,0,VALID,91.0744,VALID,0.105969,VALID,23.129,VALID,145,VALID,0,
2009-10-09, 02:54:05,VALID,1008.33,VALID,0,VALID,91.0515,VALID,0.105969,VALID,23.0883,VALID,145,VALID,0,
2009-10-09, 02:55:05,VALID,1008.31,VALID,0,VALID,91.0896,VALID,0,VALID,23.1077,VALID,145,VALID,0,
2009-10-09, 02:56:05,VALID,1008.3,VALID,0,VALID,91.082,VALID,0.105969,VALID,23.1077,VALID,145,VALID,0,
2009-10-09, 02:57:05,VALID,1008.3,VALID,0,VALID,91.082,VALID,0.105969,VALID,23.1272,VALID,142,VALID,0,
2009-10-09, 02:58:05,VALID,1008.25,VALID,0,VALID,91.0667,VALID,0,VALID,23.1272,VALID,142,VALID,0,
2009-10-09, 02:59:05,VALID,1008.23,VALID,0,VALID,91.0744,VALID,0.105969,VALID,23.1272,VALID,142,VALID,0,
2009-10-09, 03:00:05,VALID,1008.23,VALID,0,VALID,91.0896,VALID,0.105969,VALID,23.1272,VALID,142,VALID,0,
2009-10-09, 03:01:05,VALID,1008.23,VALID,0,VALID,91.0896,VALID,0.105969,VALID,23.1272,VALID,142,VALID,0,
2009-10-09, 03:02:05,VALID,1008.23,VALID,0,VALID,91.082,VALID,0,VALID,23.1272,VALID,142,VALID,0,
2009-10-09, 03:03:05,VALID,1008.24,VALID,0,VALID,91.0896,VALID,0.105969,VALID,23.1467,VALID,142,VALID,0,
2009-10-09, 03:04:05,VALID,1008.22,VALID,0,VALID,91.0744,VALID,0.105969,VALID,23.1679,VALID,142,VALID,0,
2009-10-09, 03:05:05,VALID,1008.25,VALID,0,VALID,91.0667,VALID,0.105969,VALID,23.1662,VALID,142,VALID,0,
2009-10-09, 03:06:05,VALID,1008.26,VALID,0,VALID,91.0973,VALID,0.105969,VALID,23.1467,VALID,142,VALID,0,
2009-10-09, 03:07:05,VALID,1008.27,VALID,0,VALID,91.1201,VALID,0.105969,VALID,23.1272,VALID,116,VALID,0,
2009-10-09, 03:08:05,VALID,1008.28,VALID,0,VALID,91.143,VALID,0.105969,VALID,23.1485,VALID,116,VALID,0,
2009-10-09, 03:09:05,VALID,1008.29,VALID,0,VALID,91.1278,VALID,0.105969,VALID,23.1272,VALID,38,VALID,0,
2009-10-09, 03:10:05,VALID,1008.29,VALID,0,VALID,91.1201,VALID,0,VALID,23.1485,VALID,35,VALID,0,
2009-10-09, 03:11:05,VALID,1008.31,VALID,0,VALID,91.143,VALID,0,VALID,23.1077,VALID,359,VALID,0,
2009-10-09, 03:12:05,VALID,1008.28,VALID,0,VALID,91.1354,VALID,0.105969,VALID,23.1077,VALID,355,VALID,0,
2009-10-09, 03:13:05,VALID,1008.31,VALID,0,VALID,91.1659,VALID,0.105969,VALID,23.129,VALID,350,VALID,0,
2009-10-09, 03:14:05,VALID,1008.31,VALID,0,VALID,91.2345,VALID,0.105969,VALID,23.0883,VALID,350,VALID,0,
2009-10-09, 03:15:05,VALID,1008.35,VALID,0,VALID,91.2574,VALID,0.105969,VALID,23.0688,VALID,345,VALID,0,
2009-10-09, 03:16:05,VALID,1008.37,VALID,0,VALID,91.2726,VALID,0.105969,VALID,23.0493,VALID,345,VALID,0,
2009-10-09, 03:17:05,VALID,1008.38,VALID,0,VALID,91.2574,VALID,0.105969,VALID,23.0493,VALID,345,VALID,0,
2009-10-09, 03:18:05,VALID,1008.38,VALID,0,VALID,91.2498,VALID,0.105969,VALID,23.0298,VALID,345,VALID,0,
2009-10-09, 03:19:05,VALID,1008.41,VALID,0,VALID,91.2421,VALID,0.105969,VALID,23.0705,VALID,345,VALID,0,
2009-10-09, 03:20:05,VALID,1008.37,VALID,0,VALID,91.2574,VALID,0.105969,VALID,23.0298,VALID,345,VALID,0,
2009-10-09, 03:21:05,VALID,1008.39,VALID,0,VALID,91.2574,VALID,0.105969,VALID,23.0316,VALID,345,VALID,0,
2009-10-09, 03:22:05,VALID,1008.41,VALID,0,VALID,91.265,VALID,0.105969,VALID,23.0316,VALID,345,VALID,0,
2009-10-09, 03:23:05,VALID,1008.42,VALID,0,VALID,91.2421,VALID,0,VALID,22.9909,VALID,345,VALID,0,
2009-10-09, 03:24:05,VALID,1008.47,VALID,0,VALID,91.2726,VALID,0.105969,VALID,23.0121,VALID,345,VALID,0,
2009-10-09, 03:25:05,VALID,1008.48,VALID,0,VALID,91.265,VALID,0.105969,VALID,22.9909,VALID,345,VALID,0,
2009-10-09, 03:26:05,VALID,1008.48,VALID,0,VALID,91.265,VALID,0.105969,VALID,22.9909,VALID,345,VALID,0,
2009-10-09, 03:27:05,VALID,1008.5,VALID,0,VALID,91.2955,VALID,0.105969,VALID,22.9909,VALID,345,VALID,0,
2009-10-09, 03:28:05,VALID,1008.5,VALID,0,VALID,91.2726,VALID,0.105969,VALID,23.0121,VALID,345,VALID,0,
2009-10-09, 03:29:05,VALID,1008.53,VALID,0,VALID,91.2726,VALID,0.105969,VALID,23.0103,VALID,346,VALID,0,
2009-10-09, 03:30:05,VALID,1008.56,VALID,0,VALID,91.2879,VALID,0,VALID,22.9714,VALID,26,VALID,0,
2009-10-09, 03:31:05,VALID,1008.59,VALID,0,VALID,91.3031,VALID,0.105969,VALID,22.9714,VALID,26,VALID,0,
2009-10-09, 03:32:05,VALID,1008.61,VALID,0,VALID,91.2879,VALID,0.105969,VALID,22.9909,VALID,26,VALID,0,
2009-10-09, 03:33:05,VALID,1008.62,VALID,0,VALID,91.2879,VALID,0.105969,VALID,22.9926,VALID,86,VALID,0,
2009-10-09, 03:34:05,VALID,1008.61,VALID,0,VALID,91.2879,VALID,0,VALID,22.9926,VALID,86,VALID,0,
2009-10-09, 03:35:05,VALID,1008.61,VALID,0,VALID,91.3031,VALID,0.105969,VALID,22.9926,VALID,86,VALID,0,
2009-10-09, 03:36:05,VALID,1008.58,VALID,0,VALID,91.2955,VALID,0.105969,VALID,22.9714,VALID,86,VALID,0,
2009-10-09, 03:37:05,VALID,1008.57,VALID,0,VALID,91.2955,VALID,0.211938,VALID,22.9714,VALID,86,VALID,0,
2009-10-09, 03:38:05,VALID,1008.58,VALID,0,VALID,91.2955,VALID,0.105969,VALID,22.9926,VALID,86,VALID,0,
2009-10-09, 03:39:05,VALID,1008.58,VALID,0,VALID,91.3031,VALID,0,VALID,22.9519,VALID,86,VALID,0,
2009-10-09, 03:40:05,VALID,1008.59,VALID,0,VALID,91.2879,VALID,0.105969,VALID,22.9714,VALID,86,VALID,0,
2009-10-09, 03:41:05,VALID,1008.56,VALID,0,VALID,91.3108,VALID,0,VALID,22.9926,VALID,86,VALID,0,
2009-10-09, 03:42:05,VALID,1008.57,VALID,0,VALID,91.3108,VALID,0,VALID,22.9926,VALID,86,VALID,0,
2009-10-09, 03:43:05,VALID,1008.55,VALID,0,VALID,91.2955,VALID,0.105969,VALID,22.9926,VALID,86,VALID,0,
2009-10-09, 03:44:05,VALID,1008.56,VALID,0,VALID,91.3031,VALID,0,VALID,22.9731,VALID,86,VALID,0,
2009-10-09, 03:45:05,VALID,1008.59,VALID,0,VALID,91.2193,VALID,0.105969,VALID,22.9731,VALID,86,VALID,0,
2009-10-09, 03:46:05,VALID,1008.62,VALID,0,VALID,91.1964,VALID,0,VALID,22.9731,VALID,86,VALID,0,
2009-10-09, 03:47:05,VALID,1008.62,VALID,0,VALID,91.2269,VALID,0,VALID,22.9731,VALID,86,VALID,0,
2009-10-09, 03:48:05,VALID,1008.63,VALID,0,VALID,91.2345,VALID,0.105969,VALID,22.9731,VALID,86,VALID,0,
2009-10-09, 03:49:05,VALID,1008.6,VALID,0,VALID,91.204,VALID,0.105969,VALID,22.9519,VALID,86,VALID,0,
2009-10-09, 03:50:05,VALID,1008.62,VALID,0,VALID,91.2193,VALID,0,VALID,22.9519,VALID,86,VALID,0,
2009-10-09, 03:51:05,VALID,1008.61,VALID,0,VALID,91.2269,VALID,0,VALID,22.9926,VALID,86,VALID,0,
2009-10-09, 03:52:05,VALID,1008.6,VALID,0,VALID,91.2269,VALID,0.105969,VALID,22.9714,VALID,86,VALID,0,
2009-10-09, 03:53:05,VALID,1008.61,VALID,0,VALID,91.2269,VALID,0.105969,VALID,22.9714,VALID,86,VALID,0,
2009-10-09, 03:54:04,VALID,1008.6,VALID,0,VALID,91.2193,VALID,0.105969,VALID,22.9731,VALID,86,VALID,0,
2009-10-09, 03:55:04,VALID,1008.58,VALID,0,VALID,91.2421,VALID,0.105969,VALID,22.9731,VALID,86,VALID,0,